Flag for United Kingdom Weather past 2 weeks in Darlington, England, United Kingdom

Now
45 °F

Partly sunny.


Feels Like: 40 °F
Forecast: 38 / 48 °F
Wind: 8 mph from Southwest

Location: Tees-Side

Current Time: Jan 27, 2015 at 11:18:36 AM

Latest Report: Jan 27, 2015 at 10:50 AM


Visibility: N/A

Pressure: 30.24 "Hg

Humidity: 81%

Dew point: 39 °F

Location of DarlingtonLocation

Historic Weather in Darlington — Graph

°F

Darlington temperature yesterday

Maximum temperature yesterday: 46 °F (at 5:50 AM)
Minimum temperature yesterday: 37 °F (at 7:20 PM)
Average temperature yesterday: 43 °F

Past Weeks' High & Low Weather Summary

 TemperatureHumidityPressure
High52 °F (Jan 12, 10:20 AM)100% (Jan 18, 6:20 AM)30.33 "Hg (Jan 18, 6:20 AM)
Low25 °F (Jan 18, 6:20 AM)53% (Jan 12, 2:50 PM)28.77 "Hg (Jan 15, 3:50 PM)
Average38 °F81%29.78 "Hg
* Reported Jan 12 10:20 AM — Jan 27 10:20 AM, Darlington, Weather by CustomWeather, © 2014

Note: Actual official high and low records may vary slightly from our data, if they occured in-between our weather recording intervals... More about our weather records

Advertising

Darlington weather history for previous 24 hours

 ConditionsComfort  
Time TempWeatherWind HumidityBarometerVisibility
10:20 AM
Jan 27
45 °FPartly sunny.8 mph81%30.24 "HgN/A
9:50 AM43 °FPartly sunny.9 mph87%30.24 "HgN/A
9:20 AM43 °FScattered clouds.9 mph87%30.24 "HgN/A
8:50 AM41 °FScattered clouds.7 mph87%30.24 "HgN/A
8:20 AM43 °FPassing clouds.5 mph81%30.24 "HgN/A
7:50 AM43 °FPassing clouds.9 mph81%30.24 "HgN/A
7:20 AM43 °FPassing clouds.7 mph81%30.24 "HgN/A
6:50 AM43 °FPassing clouds.10 mph81%30.24 "HgN/A
6:20 AM43 °FPassing clouds.10 mph81%30.24 "HgN/A
5:50 AM43 °FPassing clouds.6 mph81%30.24 "HgN/A
9:50 PM
Jan 26
39 °FClear.13 mph75%30.24 "Hg10 mi
9:20 PM39 °FClear.10 mph75%30.27 "Hg10 mi
8:20 PM39 °FClear.12 mph75%30.24 "Hg10 mi
7:50 PM39 °FClear.10 mph75%30.24 "Hg10 mi
7:20 PM37 °FClear.10 mph81%30.24 "Hg10 mi
6:50 PM39 °FClear.8 mph75%30.24 "Hg10 mi
6:20 PM41 °FClear.9 mph70%30.21 "Hg10 mi
5:50 PM41 °FPassing clouds.13 mph70%30.21 "HgN/A
5:20 PM41 °FPassing clouds.15 mph70%30.21 "HgN/A
4:50 PM41 °FPassing clouds.14 mph76%30.18 "HgN/A
4:20 PM43 °FPassing clouds.14 mph71%30.18 "HgN/A
3:50 PM43 °FPassing clouds.20 mph71%30.15 "HgN/A
3:20 PM43 °FSunny.15 mph71%30.15 "Hg10 mi
2:50 PM45 °FSunny.18 mph66%30.15 "Hg10 mi
2:20 PM45 °FPassing clouds.17 mph66%30.15 "HgN/A
1:50 PM45 °FPassing clouds.18 mph66%30.12 "HgN/A
1:20 PM45 °FPassing clouds.18 mph66%30.12 "HgN/A
12:50 PM45 °FPassing clouds.18 mph66%30.12 "HgN/A
12:20 PM45 °FPassing clouds.16 mph66%30.12 "HgN/A
11:50 AM45 °FPassing clouds.21 mph66%30.12 "HgN/A
11:20 AM45 °FPassing clouds.18 mph66%30.12 "HgN/A
Weather by CustomWeather, © 2014

See weather overviewHow to use our weather pages